Flag for U.S.A. Weather past 2 weeks in Topeka, Kansas, U.S.A.

Now
79 °F

Clear.


Feels Like: 82 °F
Forecast: 70 / 91 °F
Wind: 7 mph from South

Location: Philip Billard Municipal Airport

Current Time: Jul 6, 2015 at 5:02:26 AM

Latest Report: Jul 6, 2015 at 3:53 AM


Visibility: 10 mi

Pressure: 29.83 "Hg

Humidity: 79%

Dew point: 72 °F

Location of TopekaLocation

Historic Weather in Topeka — Graph

°F

Topeka temperature yesterday

Maximum temperature yesterday: 92 °F (at 5:53 PM)
Minimum temperature yesterday: 69 °F (at 3:53 AM)
Average temperature yesterday: 81 °F

Past Weeks' High & Low Weather Summary

 TemperatureHumidityPressure
High96 °F (Jun 22, 2:53 PM)100% (Jul 4, 5:03 AM)30.13 "Hg (Jul 4, 5:03 AM)
Low60 °F (Jul 4, 5:03 AM)34% (Jun 28, 3:53 PM)29.74 "Hg (Jul 1, 6:53 PM)
Average78 °F71%29.91 "Hg
* Reported Jun 21 3:53 AM — Jul 6 3:53 AM, Topeka, Weather by CustomWeather, © 2015

Note: Actual official high and low records may vary slightly from our data, if they occured in-between our weather recording intervals... More about our weather records

Advertising

Topeka weather history for previous 24 hours

 ConditionsComfort  
Time TempWeatherWind HumidityBarometerVisibility
3:53 AM
Mon, Jul 6
79 °FClear.7 mph79%29.83 "Hg10 mi
2:53 AM80 °FClear.8 mph76%29.84 "Hg10 mi
1:53 AM82 °FClear.9 mph74%29.84 "Hg10 mi
12:53 AM83 °FClear.15 mph74%29.83 "Hg10 mi
11:53 PM
Sun, Jul 5
83 °FClear.12 mph74%29.83 "Hg10 mi
10:53 PM84 °FClear.15 mph70%29.83 "Hg10 mi
9:53 PM85 °FClear.13 mph65%29.83 "Hg10 mi
8:53 PM85 °FSunny.9 mph65%29.83 "Hg10 mi
7:53 PM88 °FSunny.8 mph63%29.82 "Hg10 mi
6:53 PM91 °FSunny.13 mph56%29.81 "Hg10 mi
5:53 PM92 °FScattered clouds.15 mph52%29.83 "Hg10 mi
4:53 PM91 °FScattered clouds.15 mph56%29.84 "Hg10 mi
3:53 PM91 °FScattered clouds.14 mph56%29.85 "Hg10 mi
2:53 PM89 °FScattered clouds.15 mph57%29.87 "Hg10 mi
1:53 PM84 °FBroken clouds.8 mph70%29.88 "Hg10 mi
12:53 PM88 °FThunderstorms. Passing clouds.12 mph61%29.91 "Hg10 mi
11:53 AM85 °FSunny.15 mph68%29.92 "Hg10 mi
10:53 AM83 °FScattered clouds.17 mph72%29.92 "Hg10 mi
9:53 AM80 °FSunny.8 mph74%29.94 "Hg9 mi
8:53 AM77 °FSunny.8 mph79%29.95 "Hg7 mi
7:53 AM73 °FSunny.3 mph84%29.94 "Hg6 mi
6:53 AM70 °FFog.5 mph87%29.93 "Hg5 mi
5:53 AM69 °FFog.6 mph87%29.93 "Hg6 mi
Weather by CustomWeather, © 2015

See weather overviewHow to use our weather pages